Dewpoint
76 77 77 77 77 77 77 77 77 76 76 75 75 74 74 74 73 72 73 71 71 70 70 69 69 68 67 67 66 67 68 67 67 68 68 67 66 66 65 66 65 65 65 64 63 63 64 64 64 64 65 64 64 64 63 63 64 64 65 63 62 63 63 62 60 60 61 61 59 59 59 60 58 61 61 60 62 63 65 63 62 60 60 61 61
76 77 77 76 76 77 77 77 77 77 76 75 75 75 75 74 74 73 72 72 72 70 70 68 68 68 66 68 69 68 68 69 65 66 67 67 66 64 65 66 66 65 65 64 64 63 64 64 64 63 64 64 64 63 63 63 62 61 61 60 60 61 62 60 60 59 59 61 60 61 60 59 59 61 59 59 60 62 61 61 59 59 59 60 59
75 77 76 77 77 77 77 77 77 77 76 75 73 73 73 74 74 73 72 72 72 71 70 68 69 68 68 68 69 67 68 68 68 66 66 66 65 64 64 65 65 64 64 64 64 64 64 64 63 64 64 64 63 63 63 64 63 62 61 61 61 60 61 61 60 59 59 60 61 60 60 60 59 60 60 58 61 61 61 61 57 57 58 58 58
73 76 76 76 77 77 77 77 77 75 74 74 73 72 72 73 74 74 73 72 71 71 70 69 68 69 68 68 67 67 67 67 68 67 67 66 65 65 65 65 65 64 64 63 63 64 64 64 63 63 63 64 64 63 63 64 64 64 63 63 63 62 63 62 62 61 60 59 61 60 60 60 60 60 60 59 57 58 58 59 58 58 57 56 58
71 75 75 74 75 77 77 76 76 75 73 73 73 71 71 71 73 73 72 70 70 70 69 69 69 69 67 67 67 67 66 68 68 66 67 67 66 65 65 65 65 64 64 64 64 65 64 64 64 64 64 63 64 63 64 64 63 63 63 63 62 62 61 61 61 61 60 60 60 61 62 61 61 61 60 57 57 58 59 60 59 60 61 55 55
70 73 73 74 75 76 77 77 76 75 74 73 72 70 70 71 72 72 71 70 70 68 68 68 68 69 68 68 68 67 68 68 69 68 66 66 66 66 65 64 64 65 65 64 64 65 64 64 64 64 63 63 63 64 64 64 64 63 63 63 62 62 62 62 62 61 60 60 60 59 61 59 60 60 61 60 57 57 58 60 60 60 61 59 56
72 73 73 73 75 77 77 77 76 74 75 74 72 71 69 69 70 70 71 69 68 67 66 67 68 68 69 68 67 67 67 67 69 68 68 67 68 66 63 63 64 64 64 64 63 63 63 63 64 63 64 63 63 64 64 64 63 64 64 63 63 64 63 62 63 62 60 59 59 59 59 59 59 59 60 61 61 60 59 59 58 60 61 60 60
70 73 74 74 76 77 77 77 76 75 74 75 74 72 71 71 72 73 72 70 66 66 65 66 66 67 68 68 68 68 68 66 68 68 68 68 66 65 65 64 63 64 64 64 63 62 62 61 60 61 62 64 64 64 64 63 64 65 64 63 63 63 62 61 61 61 61 60 59 58 58 59 59 60 60 61 60 60 59 58 57 57 58 61 61
71 73 75 75 76 78 78 77 76 76 74 75 74 73 72 72 72 72 72 69 67 64 64 63 66 67 68 67 68 67 66 66 67 67 67 67 67 65 64 65 65 64 64 63 62 62 61 60 60 58 63 66 65 65 64 65 66 64 65 64 63 62 62 63 62 62 62 61 59 59 58 58 58 58 57 58 57 57 58 58 58 58 57 56 60
74 74 75 76 77 77 77 77 77 76 75 75 75 74 72 72 71 72 71 69 68 64 64 65 66 66 67 67 67 67 66 66 67 64 65 68 67 65 64 65 65 64 64 64 62 61 61 60 60 66 68 68 67 65 63 62 63 65 65 64 63 63 62 63 60 61 61 61 60 58 56 55 56 58 56 56 58 59 58 58 57 57 58 58 59
74 74 76 77 77 77 77 76 76 76 75 75 75 75 74 73 73 73 72 70 67 66 63 63 64 65 64 65 66 67 66 66 64 62 62 64 67 67 65 65 66 65 64 65 64 63 61 60 60 62 67 67 66 65 63 62 61 60 60 60 63 65 61 59 59 60 60 59 59 57 55 56 56 57 56 55 56 56 57 58 57 58 57 56 55
73 75 77 77 76 76 76 76 76 75 75 75 74 74 74 74 73 74 72 69 67 65 64 65 66 65 64 65 66 68 67 65 61 61 61 61 64 68 64 64 63 63 63 63 63 63 62 62 61 62 61 60 61 66 65 62 61 61 60 59 59 60 61 64 62 61 60 59 58 59 58 58 58 58 56 55 57 57 59 59 59 59 59 58 57
75 76 77 77 77 77 76 76 75 75 75 74 75 75 74 74 73 72 71 70 67 67 67 66 65 64 66 67 66 65 67 63 60 60 61 61 61 64 64 61 60 61 62 62 62 63 63 63 62 62 61 67 63 61 63 65 62 59 60 60 60 60 59 59 59 65 63 61 60 60 60 60 58 59 59 58 60 59 60 58 59 60 60 58 57
76 77 77 76 76 76 76 75 75 74 74 74 74 74 74 73 72 71 70 70 68 68 67 66 66 67 67 68 68 67 67 63 60 59 59 60 60 62 64 61 60 61 62 61 62 63 63 63 62 62 62 63 63 62 63 63 65 67 66 65 65 64 60 58 57 57 60 62 61 60 61 62 60 61 61 61 60 61 61 59 59 58 58 58 59
77 76 76 77 76 74 74 74 73 73 72 73 74 74 74 74 72 72 70 69 68 69 67 68 68 67 66 67 67 67 68 60 58 58 58 58 59 60 65 61 60 62 62 62 63 64 64 64 64 64 64 64 63 64 64 65 66 67 64 64 64 66 66 65 63 62 61 60 61 61 62 63 64 65 65 64 63 62 61 61 60 60 59 59 59
76 76 76 76 75 75 73 73 73 72 72 72 72 73 74 74 73 73 71 69 69 68 68 68 69 68 69 67 66 66 66 58 57 58 57 57 59 64 64 62 62 62 63 63 64 65 65 66 65 65 65 65 64 64 66 67 66 65 65 64 65 65 64 64 63 63 64 62 63 63 62 60 58 62 61 59 59 60 59 58 58 58 58 57 55
76 76 75 74 73 73 73 73 72 72 72 72 71 71 73 73 73 73 71 70 69 68 69 67 67 68 67 67 65 67 65 61 56 56 56 56 58 64 64 63 63 64 64 64 64 65 66 65 65 65 66 66 64 61 62 65 67 64 65 65 62 61 61 63 60 58 58 56 55 56 56 55 54 54 53 54 59 59 57 57 56 55 55 53 53
76 76 75 74 73 73 72 72 72 72 72 72 71 71 71 72 72 73 71 70 67 67 67 64 67 68 64 64 64 65 65 63 55 54 55 55 59 65 65 65 65 65 65 65 65 66 65 66 68 65 66 66 62 59 60 65 65 63 63 62 62 61 60 61 62 63 57 56 56 56 56 56 56 55 55 54 54 56 59 56 56 55 52 52 51
76 75 74 73 73 72 72 71 72 71 71 70 70 71 71 72 72 72 70 70 69 69 67 65 66 62 58 62 67 68 64 59 54 54 54 54 60 66 69 67 66 65 66 66 67 66 66 67 68 66 65 65 60 58 58 61 64 63 62 62 61 61 61 62 63 62 63 62 62 63 63 59 62 61 61 58 56 57 58 57 56 54 54 54 56
76 75 74 74 73 73 71 72 72 71 71 71 71 71 72 70 70 70 70 68 68 66 66 65 61 57 62 63 62 63 60 63 60 53 53 53 56 65 68 68 67 66 67 66 66 65 64 66 67 59 58 58 57 56 56 54 62 62 63 61 60 60 61 62 63 61 61 61 59 58 58 57 57 57 59 59 61 62 60 59 61 61 58 58 52
75 75 75 73 72 71 71 71 71 70 71 70 71 71 71 71 71 71 69 68 68 67 66 64 60 61 61 57 61 62 59 67 65 54 53 53 54 59 66 66 67 66 66 65 63 63 64 65 63 61 56 55 54 54 52 51 56 63 62 61 63 61 58 61 60 60 59 60 60 58 57 57 58 57 58 60 60 58 58 59 62 60 57 54 46
75 75 74 72 71 70 71 72 72 71 71 71 72 72 72 72 71 70 69 69 69 68 67 65 62 60 59 60 62 64 67 67 68 57 54 52 53 55 64 65 67 65 66 67 66 65 65 66 63 61 54 53 53 51 48 50 53 61 66 50 51 54 60 60 58 57 56 56 55 55 55 55 56 56 54 54 53 53 51 51 49 47 47 45 46
74 73 73 72 72 71 71 71 71 71 71 72 72 71 71 71 70 70 70 69 68 67 66 66 64 61 62 64 64 65 69 68 63 63 54 52 52 52 56 61 59 67 67 65 65 65 65 64 63 54 52 50 48 48 48 50 52 59 54 52 52 51 56 56 56 56 55 55 55 56 57 57 56 55 53 53 52 54 51 51 50 48 49 49 49
73 73 72 72 71 70 70 70 70 71 72 72 72 71 70 70 70 70 70 68 68 68 70 68 66 63 63 64 65 63 68 69 62 60 59 53 51 51 52 53 54 63 65 65 65 62 65 64 58 48 45 44 46 48 49 50 58 47 51 51 52 54 57 56 55 56 57 56 57 57 57 57 56 53 52 53 51 55 53 50 50 49 49 48 49
73 72 71 70 70 69 70 71 71 71 71 71 71 70 69 69 69 70 69 68 69 68 68 67 66 67 63 63 65 67 68 67 67 62 58 56 53 51 52 52 51 53 63 64 64 62 51 46 45 45 46 44 46 49 49 49 49 48 49 50 54 55 57 56 57 58 57 58 57 57 55 54 53 53 54 56 55 54 54 51 49 49 48 49 50
71 70 70 70 69 70 70 70 70 71 71 70 70 70 70 69 68 69 68 67 67 67 66 65 63 63 64 66 67 67 67 69 66 63 61 59 56 52 52 54 56 56 58 63 55 52 51 48 48 48 48 51 56 58 58 60 52 51 52 52 56 55 55 56 58 58 58 55 54 53 52 52 51 53 55 54 52 51 50 49 47 46 46 47 46
70 70 70 69 70 71 71 69 69 70 71 70 70 69 69 68 69 68 67 67 67 67 65 65 63 65 65 67 68 68 68 67 67 65 63 61 60 58 57 58 56 56 59 62 59 60 58 56 58 55 53 56 57 57 58 56 58 56 57 56 57 56 56 57 55 56 55 53 52 51 51 51 52 53 51 51 51 51 50 49 45 45 46 47 47
69 69 68 69 69 70 69 69 69 69 69 69 69 70 69 68 67 67 67 67 67 65 63 63 64 62 64 65 65 65 66 66 65 63 63 62 62 61 62 62 60 61 60 59 61 59 60 56 56 60 61 59 57 56 57 58 57 57 56 57 56 55 54 53 53 55 54 53 52 52 52 54 49 48 48 48 48 48 49 47 46 45 44 45 45
69 68 67 66 68 69 68 68 68 68 64 61 59 58 58 63 68 64 59 60 68 64 65 67 66 64 65 67 66 63 62 63 63 54 61 54 64 62 62 60 60 61 57 51 58 59 60 59 58 55 55 55 56 57 58 57 57 56 56 55 54 53 54 53 53 52 54 54 51 51 47 47 47 47 47 47 49 47 48 47 47 44 45 45 44
68 65 65 64 64 66 67 67 67 66 62 60 59 56 50 43 49 65 61 52 48 47 53 65 65 67 68 67 63 66 61 62 47 43 43 43 43 43 42 41 44 50 49 52 59 58 56 54 52 52 55 57 56 56 55 54 54 53 53 52 51 50 48 48 48 48 49 48 47 46 46 46 45 46 46 45 47 44 44 45 45 45 44 42 42
66 64 64 62 62 64 66 66 67 67 64 63 63 63 61 57 42 41 46 50 46 42 42 42 45 48 66 62 54 46 46 43 42 42 42 42 41 41 41 41 41 42 44 59 56 56 55 54 52 54 54 54 53 52 54 53 53 52 51 51 51 51 50 47 46 46 43 43 45 44 43 43 44 44 44 43 42 39 39 42 42 44 41 40 40
64 61 62 63 65 66 65 67 67 66 65 65 65 64 63 62 59 45 41 43 42 41 41 41 42 43 46 54 58 57 47 42 41 42 42 42 41 40 39 40 40 41 43 46 58 56 55 54 54 54 53 51 51 52 51 51 51 50 50 47 47 47 47 47 50 47 46 45 45 44 44 43 42 42 41 40 37 37 38 38 38 38 39 39 40
64 66 67 66 65 66 66 66 66 65 64 64 64 64 63 62 62 60 54 41 40 40 41 40 40 40 41 42 44 47 45 41 41 41 41 40 39 39 38 38 39 39 46 55 55 53 54 54 53 54 53 52 51 51 51 49 48 48 48 47 46 46 46 51 51 47 45 44 43 42 41 41 40 40 38 36 36 38 38 37 37 38 38 37 37
65 66 64 64 65 65 64 65 64 64 63 63 63 63 63 63 63 62 61 60 57 49 42 40 40 40 38 39 41 41 39 40 40 40 40 40 40 39 43 49 38 38 43 57 53 52 52 52 52 52 52 51 49 48 49 49 48 47 47 46 46 46 47 50 47 44 43 42 42 41 40 38 39 36 34 37 37 37 36 36 37 38 37 36 35
65 65 64 63 62 62 62 62 61 63 63 63 63 62 62 63 63 63 62 62 62 62 59 55 46 40 49 43 38 39 39 39 39 39 39 39 40 40 43 54 53 52 52 54 54 52 53 52 49 50 51 49 49 49 49 48 48 47 47 47 46 43 44 45 44 41 42 41 41 41 39 39 36 34 38 36 36 36 36 36 37 36 36 36 36
64 63 63 63 62 61 62 63 62 63 63 62 62 60 60 60 57 58 59 61 62 60 59 57 54 45 40 38 38 38 38 38 38 39 39 39 39 40 52 54 53 51 51 53 51 51 51 51 51 51 51 51 51 50 50 49 48 47 46 46 43 42 43 42 41 43 44 42 39 37 36 37 36 35 35 35 37 36 35 36 36 36 36 36 38
60 60 61 61 61 60 61 62 63 62 61 60 60 60 59 58 58 59 60 60 60 59 58 57 54 52 51 49 45 38 37 38 38 38 38 39 36 45 51 52 53 52 52 52 51 51 51 51 51 52 51 50 50 49 49 48 47 48 47 46 46 44 43 43 42 43 41 38 37 38 39 37 36 36 34 35 34 34 35 37 36 36 38 38 40
60 59 60 62 63 63 63 62 61 61 61 61 62 61 61 63 61 60 60 60 60 58 57 56 55 54 54 54 51 50 47 39 37 37 37 37 44 49 50 52 53 51 49 50 50 50 50 50 51 51 50 49 49 48 47 48 46 45 44 47 46 45 45 43 43 44 45 41 39 39 37 35 35 34 36 36 34 35 35 35 35 36 38 38 38
63 61 59 60 60 63 63 63 62 60 61 62 63 63 62 61 62 61 61 61 61 58 57 56 56 56 56 54 53 53 51 50 49 50 50 49 49 49 50 51 51 49 51 50 50 50 50 50 50 50 50 49 48 48 46 46 45 45 45 43 43 42 42 41 43 44 40 35 36 35 34 35 34 35 36 33 33 35 35 36 37 37 36 36 36
57 59 60 59 59 61 62 62 60 61 61 61 61 61 60 60 60 59 58 58 58 58 57 55 55 57 57 55 54 53 51 52 51 51 51 50 50 51 52 51 51 50 51 51 49 49 50 50 50 49 50 48 48 47 47 47 46 43 43 41 42 42 41 42 40 35 33 35 35 34 34 35 35 34 33 33 33 34 37 36 37 37 36 35 35
58 58 59 57 58 60 61 60 60 61 61 60 59 58 58 58 58 57 58 57 57 56 56 56 55 56 57 56 49 50 54 53 53 53 52 52 51 51 51 51 50 49 49 50 50 50 50 49 49 48 48 48 47 46 45 45 42 40 40 39 40 39 38 38 36 33 33 35 34 34 35 35 34 33 32 34 36 35 36 35 36 36 36 36 34
58 56 55 56 59 58 59 57 60 61 61 60 59 57 59 58 57 56 56 56 55 55 55 55 57 57 50 44 46 45 54 56 53 52 53 51 51 51 50 52 50 52 50 49 49 50 49 50 48 47 46 46 45 45 43 40 41 41 39 38 40 39 37 33 34 37 36 34 35 35 35 34 33 34 35 37 33 32 32 34 36 36 35 34 36
57 58 57 59 57 59 58 58 60 59 59 57 57 58 57 56 56 55 54 55 54 53 54 54 56 57 55 51 51 49 55 54 53 52 51 51 51 51 50 50 49 49 49 49 49 49 49 48 47 45 44 43 45 43 42 41 41 40 39 39 38 37 36 33 32 34 35 35 34 36 35 33 34 33 33 34 32 32 33 37 37 36 36 36 37
59 60 60 59 57 59 59 59 59 59 58 58 57 55 55 55 55 55 54 54 54 53 53 54 55 56 56 53 53 53 53 52 53 52 52 51 51 49 48 48 47 47 47 46 45 44 43 44 44 44 45 44 44 45 42 41 40 39 37 37 36 36 34 33 33 36 36 35 34 33 33 34 34 33 33 34 33 32 34 36 37 37 36 36 36
60 60 59 59 60 59 59 59 57 58 57 56 56 56 55 55 54 54 53 53 54 53 52 52 53 54 53 54 52 52 52 52 52 51 50 49 49 48 45 45 47 47 45 45 45 46 45 44 44 44 45 44 43 43 41 40 40 38 34 34 36 33 33 35 37 37 35 36 35 36 33 33 34 33 33 34 34 34 33 36 37 41 37 36 36
59 60 58 59 58 58 57 58 58 58 56 54 54 54 54 54 54 54 53 53 53 52 52 52 51 51 51 52 51 50 50 51 50 49 49 47 45 44 43 43 44 45 44 43 45 46 43 44 43 43 44 43 42 41 39 38 35 35 34 34 33 32 33 34 35 37 37 39 37 36 35 36 35 35 36 35 33 33 35 37 38 37 36 35 36
60 58 58 58 58 58 58 59 57 57 55 54 55 54 54 54 55 54 54 53 52 52 52 52 52 49 50 50 49 49 50 49 49 47 46 45 45 43 43 44 44 44 44 44 46 44 45 43 42 43 43 43 42 42 37 32 30 28 29 27 27 29 35 38 37 35 35 39 40 39 37 35 36 36 36 36 35 35 37 37 37 37 35 35 35
57 55 56 58 57 56 57 56 55 55 55 54 54 53 53 53 53 53 52 51 50 49 50 50 49 48 48 49 49 49 48 47 45 45 43 44 43 43 44 45 44 43 44 43 44 43 43 43 43 43 43 43 42 38 35 33 31 29 28 30 35 29 30 33 30 30 36 36 35 32 34 36 37 38 37 37 37 37 38 36 37 34 35 35 34
56 56 58 59 57 56 55 54 54 53 53 52 51 51 50 50 50 49 51 46 45 45 44 44 44 44 46 46 45 45 45 45 45 45 43 42 43 44 44 45 46 45 43 43 43 44 44 43 43 43 42 43 41 38 37 35 32 31 31 34 30 31 28 29 29 29 30 29 30 34 37 38 38 38 37 37 38 37 36 37 36 35 34 35 33
58 59 59 59 58 59 56 57 53 52 51 51 50 49 48 48 46 47 46 46 46 46 46 45 45 44 44 43 45 44 45 44 44 43 43 43 43 43 45 46 46 45 45 44 43 43 44 44 44 43 42 42 41 40 36 34 33 32 35 32 30 29 28 25 29 31 38 32 33 34 33 34 37 38 38 37 39 37 34 33 35 35 34 34 33
56 57 59 59 57 53 52 52 51 49 49 49 47 47 46 45 45 45 45 44 45 45 45 46 44 43 44 43 45 44 44 45 44 44 45 44 44 44 45 45 46 47 46 46 44 43 44 44 43 43 42 41 40 38 36 34 35 38 32 31 30 29 29 30 33 32 32 35 29 30 32 34 38 39 39 38 38 35 32 33 35 35 35 33 32